sat.trackr.live / text

‹ back to catalog

BEIDOU-3 M15 (C34)

NORAD 43648 · 2018-078B

PAYLOAD ACTIVE UNKNOWN

§ Identity

Operator
Country
PRC
Launch date
2018-10-15
Launch site
XICLF
Launch vehicle
Mass (kg)
RCS (m²)

Purposes: nav

External: N2YO · Heavens-Above · Gunter

§ Orbital elements

Epoch: 2026-09-19T15:40:37.685280Z

Period
773.25 min
Inclination
53.9977°
Eccentricity
0.0002666
Mean motion
1.86227621 rev/d
Perigee alt
21,520.9 km
Apogee alt
21,535.8 km
Semi-major
27,906.5 km
B*
0.0000e+0
RAAN
296.6651°
Arg perigee
34.4420°
Mean anomaly
325.6342°
Rev number
5,393

§ Raw data

BEIDOU-3 M15 (C34)1 43648U 18078B   26262.65321395 -.00000024  00000+0  00000+0 0  99962 43648  53.9977 296.6651 0002666  34.4420 325.6342  1.86227621 53939

JSON: /api/v1/satellites/43648 · /tle

For live sub-satellite position, see the globe view (requires WebGL).

§ Visibility from observer

Set your observer location to see the next 7 days of passes ≥ 10°. The values pass through the URL so the page stays shareable.

No JS? Fill the form by hand. The geolocation button needs JavaScript.